Content
SEND FEEDBACK

Daily
Averages
Monthly
Summary
United States of America

PORT HURON, MICHIGAN


Home > North America > United States > Michigan
Elevation: 649 feet     Latitude: 42 55N     Longitude: 082 32W

WEATHER
 
SELECT A DAY
Number of Records: 461,207;   Date Range: 1/1/95 - 10/19/14
 
SHARE

PRINT THIS DATA

[ ← Previous Day ]
WEATHER ALMANAC - FEBRUARY 13, 2013
[ Next Day → ]
[ °C ]   °F
Weather ElementAverageHighLow
Temperature30.4 °F37.4 °F (3:58 pm)28.4 °F (1:58 am)
Dewpoint22.8 °F26.6 °F (10:18 pm)21.2 °F (12:38 am)
Humidity73.7 %93 % (10:18 pm)60 % (2:58 pm)
Barometer29.81 in29.91 in (12:38 am)29.74 in (2:38 pm)
Wind Speed4 mph13.8 mph (12:38 pm)
Weather ElementAverage
Visibility9.7 mi
Wind DirectionS (175.1 °)

Weather ElementTotal
Precipitation---
Heating Degree Days32.1 (Base 65)
Averaged from 71 records on February 13, 2013
WEATHER CONDITIONS BREAKOUT
WIND DIRECTION BREAKOUT
WEATHER BY HOUR - FEBRUARY 13, 2013
[ °C ]   °F
Local TimeTemperatureDewpointHumidityBarometerVisibilityWind DirectionWind SpeedGust SpeedPrecipitationEventsConditions
12:38 AM30.2 °F21.2 °F69 %29.91 in10.0 miWest (280°)9.2 mphOvercast
12:58 AM30.2 °F21.2 °F69 %29.91 in10.0 miWest (270°)5.8 mphOvercast
1:18 AM30.2 °F21.2 °F69 %29.91 in10.0 miWNW (300°)4.6 mphOvercast
1:38 AM30.2 °F21.2 °F69 %29.90 in10.0 miWest (270°)4.6 mphOvercast
1:58 AM28.4 °F21.2 °F74 %29.90 in10.0 miWest (280°)5.8 mphOvercast
2:18 AM28.4 °F21.2 °F74 %29.90 in10.0 miWest (270°)4.6 mphOvercast
2:38 AM28.4 °F21.2 °F74 %29.89 in10.0 miNW (310°)6.9 mphOvercast
2:58 AM28.4 °F21.2 °F74 %29.89 in10.0 miWNW (300°)5.8 mphOvercast
3:18 AM28.4 °F21.2 °F74 %29.88 in10.0 miWest (280°)3.5 mphOvercast
3:38 AM28.4 °F21.2 °F74 %29.88 in10.0 miWNW (290°)4.6 mphOvercast
3:58 AM28.4 °F21.2 °F74 %29.88 in10.0 miWest (280°)5.8 mphOvercast
4:18 AM28.4 °F21.2 °F74 %29.88 in10.0 miNW (310°)4.6 mphOvercast
4:38 AM28.4 °F21.2 °F74 %29.88 in10.0 miNW (320°)3.5 mphOvercast
4:58 AM28.4 °F21.2 °F74 %29.87 in10.0 miNW (310°)3.5 mphOvercast
5:18 AM28.4 °F21.2 °F74 %29.88 in10.0 miCalmOvercast
5:38 AM28.4 °F21.2 °F74 %29.88 in10.0 miCalmOvercast
5:58 AM28.4 °F21.2 °F74 %29.87 in10.0 miCalmOvercast
6:18 AM28.4 °F21.2 °F74 %29.87 in10.0 miWNW (300°)3.5 mphOvercast
6:38 AM28.4 °F21.2 °F74 %29.86 in10.0 miCalmOvercast
6:58 AM28.4 °F21.2 °F74 %29.86 in10.0 miCalmOvercast
7:18 AM28.4 °F21.2 °F74 %29.85 in10.0 miCalmOvercast
7:38 AM28.4 °F21.2 °F74 %29.85 in10.0 miCalmOvercast
7:58 AM28.4 °F21.2 °F74 %29.85 in10.0 miCalmOvercast
8:18 AM28.4 °F21.2 °F74 %29.85 in10.0 miCalmOvercast
8:38 AM28.4 °F21.2 °F74 %29.84 in10.0 miCalmOvercast
8:58 AM28.4 °F21.2 °F74 %29.84 in10.0 miSSW (200°)3.5 mphOvercast
9:18 AM28.4 °F21.2 °F74 %29.83 in10.0 miCalmOvercast
9:38 AM28.4 °F21.2 °F74 %29.82 in10.0 miCalmOvercast
9:58 AM28.4 °F21.2 °F74 %29.82 in10.0 miSSE (160°)4.6 mphOvercast
10:18 AM30.2 °F21.2 °F69 %29.81 in10.0 miSW (220°)4.6 mphOvercast
10:38 AM30.2 °F21.2 °F69 %29.80 in10.0 miSSW (200°)5.8 mphOvercast
10:58 AM30.2 °F21.2 °F69 %29.80 in10.0 miWSW (250°)3.5 mphOvercast
11:18 AM30.2 °F21.2 °F69 %29.81 in10.0 miSouth (190°)4.6 mphOvercast
11:38 AM30.2 °F23.0 °F75 %29.82 in10.0 miWSW (240°)5.8 mphOvercast
11:58 AM32.0 °F23.0 °F69 %29.82 in10.0 miSouth (190°)9.2 mphOvercast
12:18 PM32.0 °F23.0 °F69 %29.81 in10.0 miSouth (190°)10.4 mphOvercast
12:38 PM32.0 °F23.0 °F69 %29.80 in10.0 miSSW (210°)13.8 mphOvercast
12:58 PM32.0 °F23.0 °F69 %29.79 in10.0 miSSW (210°)5.8 mphOvercast
1:18 PM32.0 °F23.0 °F69 %29.78 in10.0 miSW (230°)5.8 mphScattered Clouds
1:38 PM32.0 °F23.0 °F69 %29.77 in10.0 miWNW (290°)6.9 mphClear
1:58 PM33.8 °F23.0 °F65 %29.76 in10.0 miWNW (290°)6.9 mphClear
2:18 PM33.8 °F23.0 °F65 %29.75 in10.0 miCalmClear
2:38 PM33.8 °F23.0 °F65 %29.74 in10.0 miNorth (350°)3.5 mphClear
2:58 PM35.6 °F23.0 °F60 %29.74 in10.0 miNW (320°)3.5 mphClear
3:18 PM35.6 °F23.0 °F60 %29.74 in10.0 miSouth (190°)3.5 mphClear
3:38 PM35.6 °F23.0 °F60 %29.74 in10.0 miSSE (160°)4.6 mphClear
3:58 PM37.4 °F24.8 °F60 %29.74 in10.0 miSouth (170°)3.5 mphClear
4:18 PM35.6 °F23.0 °F60 %29.74 in10.0 miSouth (190°)3.5 mphClear
4:38 PM35.6 °F24.8 °F65 %29.74 in10.0 miCalmClear
4:58 PM35.6 °F24.8 °F65 %29.74 in10.0 miSSW (200°)4.6 mphClear
5:18 PM35.6 °F24.8 °F65 %29.74 in10.0 miSouth (180°)5.8 mphClear
5:38 PM33.8 °F24.8 °F70 %29.75 in10.0 miSouth (190°)4.6 mphScattered Clouds
5:58 PM33.8 °F24.8 °F70 %29.75 in10.0 miSouth (190°)3.5 mphScattered Clouds
6:18 PM33.8 °F23.0 °F65 %29.75 in10.0 miCalmMostly Cloudy
6:38 PM32.0 °F23.0 °F69 %29.75 in10.0 miSSW (210°)3.5 mphScattered Clouds
6:58 PM32.0 °F23.0 °F69 %29.76 in10.0 miCalmClear
7:18 PM30.2 °F24.8 °F80 %29.76 in10.0 miCalmClear
7:38 PM30.2 °F23.0 °F75 %29.76 in10.0 miSouth (190°)4.6 mphClear
7:58 PM28.4 °F23.0 °F80 %29.77 in10.0 miSouth (180°)4.6 mphClear
8:18 PM28.4 °F24.8 °F86 %29.77 in10.0 miSouth (190°)3.5 mphClear
8:38 PM28.4 °F24.8 °F86 %29.77 in10.0 miSouth (180°)4.6 mphClear
8:58 PM28.4 °F24.8 °F86 %29.77 in10.0 miSSW (200°)4.6 mphClear
9:18 PM28.4 °F24.8 °F86 %29.77 in10.0 miSouth (180°)5.8 mphClear
9:38 PM28.4 °F24.8 °F86 %29.77 in10.0 miSouth (190°)5.8 mphScattered Clouds
9:58 PM28.4 °F24.8 °F86 %29.77 in10.0 miSouth (190°)5.8 mphMostly Cloudy
10:18 PM28.4 °F26.6 °F93 %29.77 in7.0 miSouth (190°)5.8 mphMostly Cloudy
10:38 PM28.4 °F26.6 °F93 %29.78 in7.0 miSSW (200°)5.8 mphMostly Cloudy
10:58 PM28.4 °F26.6 °F93 %29.78 in7.0 miSouth (190°)6.9 mphScattered Clouds
11:18 PM28.4 °F26.6 °F93 %29.78 in7.0 miSouth (190°)5.8 mphScattered Clouds
11:38 PM28.4 °F26.6 °F93 %29.78 in7.0 miSouth (180°)5.8 mphMostly Cloudy
11:58 PM28.4 °F26.6 °F93 %29.78 in7.0 miSouth (190°)5.8 mphMostly Cloudy
Hourly data recorded from KPHN, located miles away from Port Huron, Michigan







STORIES FROM OUR PARTNERS